Simultaneous Nadir Overpasses (SNOs) Predictions

Prediction of SNOs between AQUA and GOES-15 Satellite Orbit:

Table of predicted SNOs for the next 14.0 days since TLE Epoch: 2/19/2022
Index Date Time (AQUA) AQUA Lat,Lon GOES-15 Lat,Lon Distance(km) Time Diff (sec)
1 02/19/2022 09:55:07 -0.67,-124.70 0.01,-127.86 360.28 80
2 02/19/2022 22:16:30 -0.44,-129.88 -0.01,-127.87 228.86 80
3 02/21/2022 22:04:15 0.21,-126.90 -0.01,-127.80 102.63 80
4 02/22/2022 10:25:29 0.93,-132.05 0.01,-127.77 486.78 80
5 02/23/2022 21:51:59 0.81,-123.92 -0.01,-127.73 433.25 80
6 02/24/2022 10:13:13 0.33,-129.06 0.01,-127.69 156.42 80
7 02/26/2022 10:00:57 -0.28,-126.08 0.01,-127.61 173.32 80
8 02/26/2022 22:22:20 -0.81,-131.26 -0.02,-127.60 417.03 80
9 02/28/2022 22:10:04 -0.19,-128.28 -0.02,-127.51 87.49 80
10 03/02/2022 21:57:48 0.45,-125.30 -0.02,-127.42 242.18 80
11 03/03/2022 10:19:02 0.68,-130.44 0.02,-127.39 346.95 80
